Stations météo

réclame
Mon MeteoGroup
Lake Vyrnwy, Grande-Bretagne (3410): Température de l'air & dewpoint: 22.10.2020 14:00:00 - 28.10.2020 14:00:00 (GMT)Lake Vyrnwy, Grande-Bretagne (3410): Température de l'air -20cm & Température de l'air -100cm: 22.10.2020 14:00:00 - 28.10.2020 14:00:00 (GMT)Lake Vyrnwy, Grande-Bretagne (3410): Vitesse du vent & gusts: 22.10.2020 14:00:00 - 28.10.2020 14:00:00 (GMT)Lake Vyrnwy, Grande-Bretagne (3410): Direction du vent: 22.10.2020 14:00:00 - 28.10.2020 14:00:00 (GMT)Lake Vyrnwy, Grande-Bretagne (3410): reduced air pressure: 22.10.2020 14:00:00 - 28.10.2020 14:00:00 (GMT)Lake Vyrnwy, Grande-Bretagne (3410): visibility: 22.10.2020 14:00:00 - 28.10.2020 14:00:00 (GMT)Lake Vyrnwy, Grande-Bretagne (3410): Ensoleillement: 22.10.2020 14:00:00 - 28.10.2020 14:00:00 (GMT)Lake Vyrnwy, Grande-Bretagne (3410): Quantités de précipitations: 22.10.2020 14:00:00 - 28.10.2020 14:00:00 (GMT)
Date & Time tt [°C] td [°C] tt -20cm [°C] tt -100cm [°C] ff [km/h] ff [knt] fx [km/h] fx [knt] dd ppp [hPa] vv [km] sd [min] rr [mm]
28.10.2020 14:00:00 - - - - - - - - - - - - -
28.10.2020 13:00:00 7,6 5,8 - - 29 16 52 28 SSW 997,1 28 0 0,0
28.10.2020 12:00:00 7,7 6,1 - - 31 17 46 25 SW 997,0 27 18 0,0
28.10.2020 11:00:00 6,5 5,4 - - 34 18 52 28 SW 997,1 9 0 1,2
28.10.2020 10:00:00 7,3 6,6 - - 24 13 - - SSW 996,3 16 0 0,2
28.10.2020 09:00:00 6,4 5,4 8,7 10,4 28 15 46 25 SW 996,2 19 6 0,6
28.10.2020 08:00:00 5,6 4,7 - - 26 14 - - SSW 996,4 5 0 0,2
28.10.2020 07:00:00 5,3 4,7 - - 24 13 - - SSW 995,9 2,9 0 0,8
28.10.2020 06:00:00 5,4 4,5 - - 31 17 48 26 SW 995,5 26 0 1,0
28.10.2020 05:00:00 5,3 4,6 - - 34 18 52 28 SW 995,5 2,9 0 1,0
28.10.2020 04:00:00 5,6 5,0 - - 29 16 54 29 SW 995,0 22 0 0,4
28.10.2020 03:00:00 5,8 5,1 - - 22 12 46 25 SSW 995,0 3,9 0 0,8
28.10.2020 02:00:00 6,4 5,5 - - 34 18 46 25 SSW 994,7 30 0 1,0
28.10.2020 01:00:00 6,0 5,4 - - 24 13 - - SW 995,0 9 0 3,4
28.10.2020 00:00:00 6,0 5,1 - - 21 11 54 29 SSW 994,9 2,8 - 0,4
27.10.2020 23:00:00 6,2 5,5 - - 37 20 59 32 SW 994,2 13 0 0,4
27.10.2020 22:00:00 6,6 5,3 - - 24 13 52 28 SSW 994,2 13 0 0,0
27.10.2020 21:00:00 6,8 4,5 - - 31 17 52 28 SW 993,9 19 0 0,0
27.10.2020 20:00:00 6,6 4,8 - - 31 17 61 33 SW 993,4 18 0 0,6
27.10.2020 19:00:00 6,7 5,1 - - 26 14 46 25 SW 993,6 5 0 0,4
27.10.2020 18:00:00 7,3 4,8 - - 24 13 55 30 WSW 992,8 25 0 0,2
27.10.2020 17:00:00 7,3 4,6 - - 39 21 54 29 SW 992,0 20 0 0,0
27.10.2020 16:00:00 7,8 5,8 - - 29 16 46 25 SW 991,3 18 12 0,2
27.10.2020 15:00:00 8,1 6,2 - - 29 16 61 33 WSW 990,9 11 0 0,2
27.10.2020 14:00:00 8,7 7,2 - - 35 19 70 38 WSW 990,1 20 0 0,4
27.10.2020 13:00:00 10,6 10,4 - - 34 18 55 30 SW 988,5 4,6 0 0,8
27.10.2020 12:00:00 9,0 9,0 - - 21 11 - - S 989,2 5 0 1,2
27.10.2020 11:00:00 8,0 8,0 - - 21 11 - - S 990,5 2,7 0 1,2
27.10.2020 10:00:00 7,3 7,2 - - 15 8 - - S 991,5 2,6 0 1,2
27.10.2020 09:00:00 6,9 6,9 9,0 10,7 13 7 - - SSE 992,4 1,4 0 1,2
27.10.2020 08:00:00 6,3 6,2 - - 9 5 - - S 993,7 1,8 0 0,6
27.10.2020 07:00:00 6,0 5,8 - - 15 8 - - S 994,5 3,2 0 0,2
27.10.2020 06:00:00 5,8 5,2 - - 13 7 - - S 995,4 8 0 0,0
27.10.2020 05:00:00 6,2 5,3 - - 11 6 - - SSW 996,2 27 0 0,2
27.10.2020 04:00:00 5,9 4,9 - - 11 6 - - SSW 996,9 27 0 0,0
27.10.2020 03:00:00 5,6 4,2 - - 13 7 - - SW 997,5 35 0 0,0
27.10.2020 02:00:00 5,7 4,6 - - 13 7 - - WSW 998,3 35 0 0,0
27.10.2020 01:00:00 5,5 4,9 - - 8 4 - - SW 998,9 40 0 0,0
27.10.2020 00:00:00 6,3 5,6 - - 11 6 - - SW 999,2 4,0 - 0,0
26.10.2020 23:00:00 5,9 4,1 - - 11 6 - - SSW 999,6 40 0 0,0
26.10.2020 22:00:00 7,2 5,4 - - 21 11 - - W 999,1 22 0 0,0
26.10.2020 21:00:00 6,7 4,8 - - 22 12 - - W 999,1 50 0 0,0
26.10.2020 20:00:00 7,2 5,3 - - 28 15 - - W 998,7 40 0 0,2
26.10.2020 19:00:00 7,1 4,8 - - 21 11 - - WSW 998,4 40 0 0,0
26.10.2020 18:00:00 7,5 5,7 - - 22 12 - - WSW 998,0 35 0 0,0
26.10.2020 17:00:00 7,3 5,4 - - 21 11 50 27 WSW 997,8 40 0 0,2
26.10.2020 16:00:00 8,2 5,7 - - 31 17 52 28 W 997,1 30 6 0,0
26.10.2020 15:00:00 8,1 5,8 - - 35 19 52 28 W 996,8 5 24 0,2
26.10.2020 14:00:00 8,4 5,7 - - 34 18 - - WSW 996,3 30 18 0,0
26.10.2020 13:00:00 8,7 5,6 - - 31 17 46 25 WSW 995,8 30 18 0,2
26.10.2020 12:00:00 - - - - - - - - - - - - -
26.10.2020 11:00:00 8,6 6,2 - - 29 16 52 28 WSW 994,9 23 6 0,0
26.10.2020 10:00:00 8,0 6,1 - - 29 16 46 25 W 994,3 3,8 12 0,2
26.10.2020 09:00:00 8,2 6,1 9,2 10,9 29 16 46 25 W 993,5 35 0 0,2
26.10.2020 08:00:00 7,9 6,7 - - 28 15 48 26 W 992,3 19 0 0,6
26.10.2020 07:00:00 7,6 6,7 - - 29 16 48 26 WSW 991,2 1,7 0 1,0
26.10.2020 06:00:00 7,7 6,8 - - 31 17 - - WSW 990,5 8 0 2,6
26.10.2020 05:00:00 6,8 6,2 - - 21 11 - - SW 990,5 2,3 0 0,8
26.10.2020 04:00:00 6,6 6,1 - - 16 9 - - SSW 990,7 10 0 0,8
26.10.2020 03:00:00 6,7 6,1 - - 22 12 - - SW 991,1 6 0 0,6
26.10.2020 02:00:00 6,2 5,8 - - 15 8 - - SW 991,2 6 0 0,8
26.10.2020 01:00:00 6,1 5,7 - - 26 14 - - SW 991,3 15 0 0,4
26.10.2020 00:00:00 5,7 5,3 - - 16 9 - - SSW 991,8 30 - 1,0
25.10.2020 23:00:00 5,7 5,2 - - 13 7 - - SW 992,4 12 0 0,4
25.10.2020 22:00:00 4,9 4,6 - - 11 6 - - S 992,8 30 0 0,0
25.10.2020 21:00:00 5,1 4,8 - - 11 6 - - SSW 992,7 26 0 0,0
25.10.2020 20:00:00 5,5 5,3 - - 15 8 - - SSW 992,5 45 0 0,0
25.10.2020 19:00:00 4,9 4,6 - - 13 7 - - SSW 992,7 6 0 0,2
25.10.2020 18:00:00 4,8 4,4 - - 13 7 - - SSW 992,6 75 0 0,0
25.10.2020 17:00:00 4,7 4,1 - - 11 6 - - SSW 992,6 75 0 2,6
25.10.2020 16:00:00 6,3 5,5 - - 13 7 - - SW 992,2 4,6 0 1,2
25.10.2020 15:00:00 6,7 5,8 - - 11 6 - - SSW 991,6 45 12 0,6
25.10.2020 14:00:00 6,5 4,6 - - 16 9 - - SW 992,1 14 0 0,0
25.10.2020 13:00:00 5,4 2,6 - - 26 14 - - WSW 992,4 2,4 6 0,4
25.10.2020 12:00:00 7,1 6,3 - - 15 8 - - SSW 991,9 30 0 1,6
25.10.2020 11:00:00 6,9 6,0 - - 24 13 - - SSW 991,7 20 0 1,0
25.10.2020 10:00:00 6,9 5,5 - - 24 13 - - SW 991,7 5 0 2,0
25.10.2020 09:00:00 6,5 5,1 9,7 11,0 13 7 - - S 991,5 23 0 0,0
25.10.2020 08:00:00 5,6 3,8 - - 18 10 48 26 SSW 991,0 65 0 0,0
25.10.2020 07:00:00 5,6 4,4 - - 31 17 - - SSW 989,6 45 0 0,0
25.10.2020 06:00:00 5,7 4,8 - - 26 14 - - SSW 990,6 40 0 0,2
25.10.2020 05:00:00 6,0 4,8 - - 37 20 59 32 SW 990,6 3,4 0 0,6
25.10.2020 04:00:00 6,2 4,5 - - 22 12 52 28 SSW 990,1 30 0 0,0
25.10.2020 03:00:00 5,6 4,4 - - 21 11 - - SSW 990,4 23 0 0,0
25.10.2020 02:00:00 5,2 3,9 - - 24 13 - - SSW 990,9 25 0 0,0
25.10.2020 01:00:00 4,8 4,3 - - 18 10 - - SSW 991,5 22 0 0,2
25.10.2020 00:00:00 - - - - - - - - - - - - -
24.10.2020 23:00:00 5,4 4,8 - - 5 3 - - SSW 991,9 8 0 0,4
24.10.2020 22:00:00 6,0 4,6 - - 29 16 46 25 SW 991,4 5 0 1,4
24.10.2020 21:00:00 6,2 5,7 - - 22 12 - - SW 990,9 25 0 0,0
24.10.2020 20:00:00 6,1 5,6 - - 26 14 - - SW 990,9 55 0 0,0
24.10.2020 19:00:00 6,0 5,6 - - 18 10 - - SSW 991,6 30 0 0,0
24.10.2020 18:00:00 6,5 6,1 - - 15 8 - - SW 991,1 3,4 0 0,4
24.10.2020 17:00:00 7,8 7,2 - - 15 8 - - WSW 990,3 28 0 1,4
24.10.2020 16:00:00 9,1 8,9 - - 16 9 - - SSW 989,9 21 0 2,2
24.10.2020 15:00:00 8,7 8,4 - - 13 7 - - SSW 991,0 2,5 0 2,6
24.10.2020 14:00:00 9,3 8,7 - - 22 12 - - SSW 992,3 4,1 0 1,4
24.10.2020 13:00:00 10,2 9,7 - - 21 11 - - S 993,1 16 0 1,2
24.10.2020 12:00:00 9,4 9,0 - - 26 14 54 29 SW 994,4 4,7 0 1,8
24.10.2020 11:00:00 10,0 9,2 - - 31 17 68 37 SW 994,8 11 0 0,6
24.10.2020 10:00:00 10,6 9,4 - - 37 20 65 35 SW 994,9 19 0 1,2
24.10.2020 09:00:00 11,2 10,7 9,9 11,2 35 19 57 31 SSW 994,9 9 0 4,4
24.10.2020 08:00:00 10,7 9,8 - - 41 22 63 34 SSW 995,2 75 0 0,0
24.10.2020 07:00:00 9,4 9,2 - - 31 17 48 26 SSW 996,2 30 0 1,4
24.10.2020 06:00:00 9,1 8,4 - - 35 19 54 29 SSW 997,0 1,7 0 0,4
24.10.2020 05:00:00 9,2 7,5 - - 34 18 61 33 SSW 998,3 28 0 0,0
24.10.2020 04:00:00 8,5 6,5 - - 26 14 46 25 SSW 999,8 28 0 0,0
24.10.2020 03:00:00 7,4 6,4 - - 22 12 - - S 1001,7 30 0 0,0
24.10.2020 02:00:00 7,1 5,7 - - 24 13 - - S 1002,6 29 0 0,0
24.10.2020 01:00:00 6,8 4,9 - - 26 14 - - S 1003,7 30 0 0,0
24.10.2020 00:00:00 6,3 4,2 - - 24 13 - - SSW 1004,9 30 - 0,0
23.10.2020 23:00:00 5,7 4,0 - - 26 14 - - SW 1005,9 30 0 0,0
23.10.2020 22:00:00 5,2 4,2 - - 16 9 - - SW 1006,6 27 0 0,0
23.10.2020 21:00:00 5,6 4,2 - - 22 12 - - SW 1006,6 30 0 0,0
23.10.2020 20:00:00 5,4 4,3 - - 21 11 - - SW 1007,0 30 0 0,0
23.10.2020 19:00:00 5,0 3,9 - - 11 6 - - SW 1007,7 28 0 0,0
23.10.2020 18:00:00 5,5 4,1 - - 9 5 - - SSW 1007,3 29 0 0,0
23.10.2020 17:00:00 6,4 4,6 - - 13 7 - - WSW 1006,8 30 0 0,0
23.10.2020 16:00:00 7,7 4,2 - - 18 10 - - WSW 1006,4 35 6 0,0
23.10.2020 15:00:00 8,2 4,5 - - 22 12 - - WSW 1005,9 30 36 0,0
23.10.2020 14:00:00 8,1 4,4 - - 29 16 - - WSW 1005,4 23 30 0,0
23.10.2020 13:00:00 8,9 5,7 - - 24 13 - - W 1004,6 45 12 0,2
23.10.2020 12:00:00 8,4 6,6 - - 26 14 46 25 W 1004,2 9 6 0,0
23.10.2020 11:00:00 8,4 8,2 - - 24 13 - - SW 1003,5 8 0 0,6
23.10.2020 10:00:00 7,2 6,7 - - 18 10 - - S 1003,8 2,4 0 0,4
23.10.2020 09:00:00 6,9 5,7 10,0 11,2 15 8 - - SSW 1004,5 28 0 0,0
23.10.2020 08:00:00 6,2 4,9 - - 13 7 - - SSW 1004,3 40 0 0,0
23.10.2020 07:00:00 4,6 3,9 - - 2 1 - - S 1004,9 45 0 0,0
23.10.2020 06:00:00 4,0 3,4 - - 4 2 - - N 1005,3 45 0 0,0
23.10.2020 05:00:00 3,9 2,7 - - 0 0 - - N 1005,7 50 0 0,0
23.10.2020 04:00:00 3,8 2,5 - - 2 1 - - NE 1006,0 45 0 0,0
23.10.2020 03:00:00 3,9 2,2 - - 0 0 - - N 1006,6 50 0 0,0
23.10.2020 02:00:00 3,5 1,7 - - 5 3 - - SSW 1007,4 55 0 0,0
23.10.2020 01:00:00 3,1 1,4 - - 2 1 - - WSW 1008,0 55 0 0,0
23.10.2020 00:00:00 3,0 1,4 - - 2 1 - - SW 1008,4 55 - 0,0
22.10.2020 23:00:00 3,8 1,7 - - 5 3 - - SSW 1008,8 50 0 0,0
22.10.2020 22:00:00 3,9 1,7 - - 8 4 - - S 1008,9 55 0 0,0
22.10.2020 21:00:00 4,2 2,0 - - 8 4 - - SW 1009,3 55 0 0,0
22.10.2020 20:00:00 4,5 1,6 - - 2 1 - - SW 1009,4 55 0 0,0
22.10.2020 19:00:00 4,9 1,8 - - 5 3 - - SW 1009,4 55 0 0,0
22.10.2020 18:00:00 5,8 2,2 - - 15 8 - - WSW 1009,0 55 0 0,0
22.10.2020 17:00:00 6,6 2,7 - - 13 7 - - WSW 1008,6 60 0 0,0
22.10.2020 16:00:00 7,3 4,1 - - 16 9 - - SW 1008,1 50 0 0,0
22.10.2020 15:00:00 7,4 5,1 - - 18 10 - - SW 1007,7 40 0 0,0
22.10.2020 14:00:00 7,4 4,6 - - 22 12 - - SW 1007,5 55 0 0,0

tt = Température de l'air
td = dewpoint
tt -20cm = Température de l'air -20cm
tt -100cm = Température de l'air -100cm
ff = Vitesse du vent
fx = gusts
dd = Direction du vent
ppp = reduced air pressure
vv = visibility
sd = Ensoleillement
rr = Quantités de précipitations

stations d'obs. à proximité